COSMOS 1275 DEB

Satellite information

Favourite Embed

Satellite Type and Status

DEBRISIN ORBIT

Key statistics

Satellite COSMOS 1275 DEB at a glance.

Uptime

16104

Days in orbit

Revolutions

≈ 14.1

Per day

Orbit

LEO

Low Earth Orbit

Inclination

82.7

Latest

Satellite identification and parameters

Extended collection of information and parameters for COSMOS 1275 DEB.

Object identification

Identified? True

Debris? True

Object name: COSMOS 1275 DEB

International designator: 1981-053UW

Object number (NORAD): 42230

Object ID (CCSDS): 42230

Country: COMMONWEALTH OF INDEPENDENT STATES (CIS)

Current information (Y/N): Y

RCS size: SMALL

Orbital parameters

Period: 101.806 minutes

Inclination: 82.7483 deg

SMA: 7222.301 km

Apoapsis: 872.324 km

Periapsis: 816.008 km

RAAN: 248.3655 deg

Eccentricy: 0.0038987

Argument of periapsis: 259.3347 deg

Mean anomaly: 100.3439 deg

Mean motion: 14.14455838 rev/day

Mean motion (dot): 0.00001865 rev/day2

B* drag term: 0.00095899 1/REarth

Two-line elements (TLE)

Creation date: July 1, 2025, 6:11 p.m.

Reference frame: TEME

Reference center: EARTH

Epoch: July 1, 2025, 4:04 a.m. UTC

TLE line 0: 0 COSMOS 1275 DEB

TLE line 1: 1 42230U 81053UW 25182.16953343 .00001865 00000-0 95899-3 0 9993

TLE line 2: 2 42230 82.7483 248.3655 0038987 259.3347 100.3439 14.14455838577345

Live tracking on map

Real-time ground track for satellite COSMOS 1275 DEB.

In-orbit conjunctions

A list of the most updated potential collisions computed for object COSMOS 1275 DEB.

Target Orbit TCA Probability of collision Miss distance Type
CZ-6A DEB SSO 2025-04-23 05:46:33 0.0001910195 80.0 (m) DEBRIS
METEOR 2-7 DEB LEO 2025-04-01 15:23:12 0.0001168235 81.0 (m) DEBRIS
DMSP 5D-2 F13 DEB SSO 2024-11-13 03:42:47 0.0001121409 198.0 (m) DEBRIS
FENGYUN 1C DEB SSO 2024-11-12 11:33:56 0.000111915 365.0 (m) DEBRIS
CZ-6A DEB SSO 2024-10-22 03:32:44 0.0005104171 152.0 (m) DEBRIS

Associated space launch

Navigation satellite providing location information for the Tsiklon-B navigation system

COSMOS 1275 DEB was lifted into orbit during the mission ‘Kosmos-3M | Parus 27’, on board a Kosmos-3M space rocket.

The launch took place on June 4, 1981, 3:41 p.m. from 132/2.

For more information about the launch, click the button.

Launch to space Kosmos-3M | Parus 27
Kosmos-3M | Parus 27

Agency: N/A

Status: Launch Successful

Launch date: June 4, 1981, 3:41 p.m. UTC

Rocket: Kosmos-3M

Launch pad: 132/2

Location: Plesetsk Cosmodrome, Russian Federation

...

Latest news about this satellite

There are no fresh news available about this satellite. Check back as we update our databases every day.


Newsletter sign-up

Weekly statistics, charts and insights to help you stay on top of the space industry.